Tracking 19572 objects as of 23-Feb-2019
HD Live streaming from Space Station
objects crossing your sky now

COSMOS 1818 COOLANT

Track COSMOS 1818 COOLANT now!
10-day predictions


NORAD ID: 36937
Int'l Code: 1987-011R
Perigee: 769.7 km
Apogee: 800.3 km
Inclination: 65.0 °
Period: 100.4 minutes
Semi major axis: 7156 km
RCS: 0.0037 m2 (small)
Launch date: February 1, 1987
Source: Commonwealth of Independent States (former USSR) (CIS)
Launch site: TYURATAM MISSILE AND SPACE COMPLEX (TTMTR)

Note: This is SATELLITE DEBRIS
aabbcc
Your satellite tracking list
Your tracking list is empty




NASA's NSSDC Master Catalog

Two Line Element Set (TLE):
1 36937U 87011R   19048.91649716  .00000011  00000-0  39747-4 0  9996
2 36937  65.0137 158.7690 0021342 268.5394  91.3247 14.34153136519021
Source of the keplerian elements: AFSPC